Location: Artiguedieu
(43.5000°N, 0.5454°E)
Time: 12:25:32
(UTC+00:00)

Cosmos 2218 Rocket - Pass Details

Date: 06 December 2020
Orbit: 956 x 1005 km, 82.9° (Epoch: 27 January)

Event Time Altitude Azimuth Distance (km) Brightness Sun altitude
Rises 06:03:30 0° 190° (S) 3,668 7.1 -12.8°
Reaches altitude 10° 06:06:01 10° 192° (SSW) 2,717 6.4 -12.4°
Maximum altitude 06:12:14 77° 278° (W) 996 3.9 -11.3°
Drops below altitude 10° 06:18:27 10° 5° (N) 2,706 6.2 -10.3°
Sets 06:20:58 0° 7° (N) 3,653 6.9 -9.8°
